Find Starlink 38260

NORAD ID: 100304 Int'l Des: 2026-184 Owner: SPXS Country: US Constellation: starlink operational

現在のビュー

3D地球を読み込み中...

About Starlink 38260

Starlink 38260 (NORAD 100304) is a starlink constellation satellite launched Aug 12, 2026 by SPXS of US. with a mass of 575.00 kg.

次回通過

Passes for default location (London). Set your location on the main map for personalized predictions.

高度履歴

Loading altitude history...

軌道要素

1 A0304U 26184D 26262.04758926 .00016124 00000-0 50060-3 0 9995
2 A0304 97.2850 127.1242 0002245 94.5262 265.6237 15.33450337 7136
Epoch: Sep 19, 2026 • Age: 38 hours

現在のステータス

高度 474.0 km
遠地点 / 近地点 N/A
速度 7.64 km/s
衛星直下点 58.53°N, 92.36°E
打ち上げ日 Aug 12, 2026
運用期間 0.1 years
タイプ internet

技術仕様

分類 Payload
質量 575.00 kg
乾燥質量 530.00 kg
長さ 0.30 m
スパン 29.00 m
形状 ? Box + pan
製造者 SPXS
バスタイプ Starlink V2MO
フェーズステータス In Orbit
所有者/国 SPXS/US

Most Searched